Regional Weather Roundup
Issued by NWS

Home | Current Version | Previous Version | Text Only | Print | Product List | Glossary On
Versions: 1 2 3 4 5 6 7 8 9 10 11 12 13 14 15 16 17 18 19 20 21 22 23 24 25 26 27 28 29 30 31 32 33 34 35 36 37 38 39 40 41 42 43 44 45 46 47 48 49 50
000
ASUS43 KMKX 291120
RWRWI

WISCONSIN REGIONAL WEATHER ROUNDUP
NATIONAL WEATHER SERVICE MILWAUKEE/SULLIVAN WI
600 AM CDT SUN MAR 29 2015

NOTE: "FAIR" INDICATES FEW OR NO CLOUDS BELOW 12,000 FEET WITH NO
SIGNIFICANT WEATHER AND/OR OBSTRUCTIONS TO VISIBILITY.

WIZ001-002-006>008-014>016-023>028-291200-
NORTHWEST WISCONSIN

CITY           SKY/WX    TMP DP  RH WIND       PRES   REMARKS
SUPERIOR ARPT  LGT RAIN  36  27  70 SW16G28   29.60F WCI  26
ASHLAND        MOCLDY    35  17  47 S18G26    29.65F WCI  24
HAYWARD        LGT RAIN  34  19  54 S22G29    29.68F WCI  22
SIREN          MIX PCPN  34  28  78 S14G23    29.66F WCI  25
CUMBERLAND     LGT RAIN  32  27  80 S16G25    29.69F WCI  21
RICE LAKE      MIX PCPN  33  24  69 S16G23    29.74F WCI  23
CHETEK         MIX PCPN  32  26  76 S12G20    29.74F WCI  23
LADYSMITH      MOCLDY    32  17  55 S13G21    29.78F WCI  22
EAU CLAIRE     CLOUDY    35  18  49 S13       29.78F WCI  26
MENOMONIE      LGT RAIN  34  26  71 SE13G20   29.78F WCI  25
NEW RICHMOND   LGT RAIN  33  29  86 S16       29.71F WCI  22
OSCEOLA        LGT SNOW  33  32  94 S16       29.72F WCI  23
$$

WIZ003>005-009-010-017-018-291200-
NORTH CENTRAL WISCONSIN

CITY           SKY/WX    TMP DP  RH WIND       PRES   REMARKS
MANITOWISH WTR MOCLDY    30  16  55 S14G21    29.75F WCI  19
ARBOR VITAE    MOCLDY    32  17  54 S16G23    29.78F WCI  21
WOODRUFF       MOCLDY    32  17  54 S16G23    29.78F WCI  21
RHINELANDER    MOCLDY    29  14  53 S14G20    29.84F WCI  18
EAGLE RIVER    MOCLDY    30  13  49 SW12G23   29.78F WCI  20
LAND O LAKES   MOCLDY    30  14  51 S9G20     29.77F WCI  22
PHILLIPS       CLOUDY    30  15  54 S14       29.78F WCI  20
TOMAHAWK       PTCLDY    29  15  56 S5        29.84F WCI  23
MEDFORD        PTCLDY    29  18  63 S14       29.84F WCI  18
MERRILL        PTCLDY    30  15  53 S9G17     29.87F WCI  22
$$

WIZ029-030-035-036-043>047-291200-
CENTRAL WISCONSIN

CITY           SKY/WX    TMP DP  RH WIND       PRES   REMARKS
WAUSAU         PTCLDY    30  15  53 S13       29.89F WCI  20
MOSINEE        CLEAR     28  16  59 S14       29.92F WCI  17
MARSHFIELD     PTCLDY    30  16  56 S14       29.87F WCI  19
STEVENS POINT  PTCLDY    28  14  54 S9G16     29.94F WCI  20
WAUPACA        MOCLDY    32  16  52 S9        29.98F WCI  24
WAUTOMA        PTCLDY    31  16  54 S9        29.99S WCI  23
WISC RAPIDS    PTCLDY    31  14  49 S10       29.95F WCI  22
CAMP DOUGLAS   MOCLDY    32  18  54 S13       29.92F WCI  23
$$

WIZ011>013-019>022-031-037>040-048>050-291200-
NORTHEAST WISCONSIN

CITY           SKY/WX    TMP DP  RH WIND       PRES   REMARKS
ANTIGO         MOCLDY    29  15  57 SW15G21   29.90S WCI  17
SHAWANO        MOCLDY    32  17  55 S8        29.96S WCI  25
OCONTO         MOCLDY    30  17  57 S10G22    29.99S WCI  21
STURGEON BAY   MOCLDY    28  14  54 S13       30.02R WCI  18
GREEN BAY      MOCLDY    32  19  58 S18G24    30.00F WCI  20
MANITOWOC      MOCLDY    30  17  58 S14       30.03F WCI  19
APPLETON       MOCLDY    28  16  59 S20       30.00S WCI  15
CLINTONVILLE   MOCLDY    32  18  55 S12G17    29.97S WCI  23
OSHKOSH        PTCLDY    29  17  61 S16       30.01S WCI  17
$$

WIZ032>034-041-042-053>061-291200-
SOUTHWEST WISCONSIN

CITY           SKY/WX    TMP DP  RH WIND       PRES   REMARKS
LA CROSSE      MOCLDY    36  20  52 S17G33    29.89F WCI  26
SPARTA         MOCLDY    33  18  52 S16       29.88F WCI  23
VIROQUA        MOCLDY    31  20  63 S14G22    29.87F WCI  21
BOSCOBEL       MOCLDY    34  18  52 S8G17     29.96F WCI  27
PRAIRIE DU CHI MOCLDY    34  19  54 SE12G20   29.92F WCI  25
PLATTEVILLE    MOCLDY    31  20  65 S15       30.01F WCI  20
$$

WIZ056-057-062-063-064-067-068-291200-
SOUTH CENTRAL WISCONSIN

CITY           SKY/WX    TMP DP  RH WIND       PRES   REMARKS
REEDSBURG      PTCLDY    31  19  58 S13       29.99S WCI  22
BARABOO/DELLS  PTCLDY    31  17  56 S13       29.98F WCI  21
LONE ROCK      PTCLDY    31  18  58 S8        30.02S WCI  23
MINERAL POINT  PTCLDY    32  19  59 S12       30.00S WCI  23
MADISON        MOCLDY    31  18  58 S12G22    30.03S WCI  22
MIDDLETON      MOCLDY    32  18  55 S12       30.03S WCI  23
WATERTOWN      PTCLDY    29  18  64 S12       30.05R WCI  19
MONROE         PTCLDY    30  21  69 S16       30.04S WCI  19
JANESVILLE     CLEAR     32  18  55 S15G21    30.06F WCI  22
$$

WIZ051-052-058>065-066-070>072-291200-
SOUTHEAST WISCONSIN

CITY           SKY/WX    TMP DP  RH WIND       PRES   REMARKS
MILWAUKEE      MOCLDY    30  14  51 S10       30.08F WCI  21
WAUKESHA       CLEAR     27  14  59 S10       30.27R WCI  17
MILWAUKEE/TIMM MOCLDY    32  14  47 S10       30.08F WCI  24
RACINE         MOCLDY    31  13  47 S13       30.10F WCI  21
BURLINGTON     PTCLDY    29  15  56 S13G23    30.08F WCI  19
KENOSHA        PTCLDY    29  15  56 S12       30.09F WCI  19
FOND DU LAC    PTCLDY    31  17  56 S18       30.02F WCI  19
SHEBOYGAN      MOCLDY    28  16  60 S13       30.04F WCI  17
WEST BEND      PTCLDY    30  14  51 S12       30.05R WCI  21
JUNEAU         PTCLDY    29  18  63 S15       30.04F WCI  17
$$

LSZ147-162-291200-
LAKE SUPERIOR

STATION/POSITION TIME  TEMP    WIND        PRES    WAVE
                       AIR SEA DIR/SP/G            HT/PER
                 (UTC) (F)     (DEG/KT/KT) (MB)    (FT/S)
DEVILS ISLAND    1100   36     190/ 15/ 26 1003.5F
PORT WING        1000   37     190/ 13     1004.4F
SAXON HARBOR     1100   37     200/ 13     1004.1F
$$

LMZ867-665-643>646-291200-
LAKE MICHIGAN

STATION/POSITION TIME  TEMP    WIND        PRES    WAVE
                       AIR SEA DIR/SP/G            HT/PER
                 (UTC) (F)     (DEG/KT/KT) (MB)    (FT/S)
NORTHPORT PIER   1020   32     170/  6/ 13 1015.6F
SISTER BAY       1032   32     190/ 18/ 26   N/A
SHEBOYGAN LAKESH 1100   33     200/ 21/ 24 1018.3F
PORT WASHINGTON  1020   31     200/  7/ 19 1019.0F
MILWAUKEE LAKESH 1000   31     200/ 15/ 20   N/A
KENOSHA   LAKESH 1100   31     190/ 14/ 18 1019.0F
$$

TC  - TEMPERATURE IN CELSIUS
VSB - VISIBILITY IN STATUTE MILES
WCI - WIND CHILL INDEX
HX  - HEAT INDEX



USA.gov is the U.S. government's official web portal to all federal, state and local government web resources and services.